Theta_e
314 314 315 317 323 345 335 336 344 353 352 350 350 350 349 350 352 354 353 349 348 352 354 350 352 355 346 347 347 343 337 335 326 321 323 326 325 324 321 324 323 325 323
315 315 317 317 320 330 337 330 339 349 351 350 351 350 349 347 349 350 346 344 345 347 350 350 348 348 352 354 344 342 332 332 326 319 321 322 322 323 323 324 321 323 324
313 315 318 318 317 319 333 343 346 349 350 350 350 350 349 349 349 350 349 347 348 349 349 350 350 351 352 345 343 333 327 325 327 322 320 321 319 319 320 323 323 325 321
311 313 317 317 317 320 329 338 348 349 350 350 351 351 350 351 351 351 350 350 351 350 353 352 349 349 348 339 336 335 329 324 326 322 319 317 315 318 319 317 317 320 318
309 311 315 320 320 321 325 340 349 348 350 351 350 351 352 352 350 352 352 352 353 350 351 350 351 344 332 334 336 333 329 325 320 317 315 315 314 313 317 317 317 319 321
308 310 313 318 320 321 325 332 343 349 350 349 351 351 352 350 324 322 344 355 352 349 346 347 347 330 324 314 315 316 325 326 320 315 314 312 312 316 318 317 317 316 314
307 308 312 315 318 321 325 330 333 346 350 350 351 352 352 354 313 315 319 353 349 348 348 346 341 333 322 322 311 310 309 309 315 318 316 314 312 321 321 319 319 319 318
308 309 311 313 317 320 323 329 334 338 347 350 351 352 353 353 311 310 314 352 349 347 344 342 332 324 323 319 317 317 313 315 315 316 318 322 322 323 322 321 322 322 321
306 309 310 310 317 320 322 327 329 336 341 346 350 351 351 352 307 308 318 349 344 342 337 329 330 320 307 306 316 315 314 307 303 302 303 301 302 304 315 320 318 316 314
304 309 311 313 316 316 319 321 326 332 336 340 342 346 337 351 303 304 319 345 336 327 325 323 312 316 302 304 320 310 306 304 306 307 310 309 313 310 307 323 319 315 314
304 309 310 313 314 319 322 324 327 330 332 335 336 341 344 342 335 302 309 339 327 323 323 320 319 301 301 301 307 312 310 314 308 312 315 315 316 317 319 322 323 320 314
303 307 310 312 314 319 320 322 325 328 333 331 332 334 340 343 313 302 307 314 317 326 322 321 314 300 299 299 306 299 300 307 314 313 313 313 313 314 315 317 319 319 318
304 309 314 317 317 320 320 322 322 323 329 329 330 330 328 323 321 306 302 304 309 326 328 317 300 297 296 299 297 299 301 312 313 312 312 312 313 314 316 316 318 318 315
306 309 310 314 319 320 322 324 323 323 324 330 328 325 320 318 319 316 317 315 309 311 304 302 302 305 303 303 303 303 312 313 313 313 312 312 312 313 313 314 312 310 307
304 305 307 308 312 311 307 308 312 316 305 328 329 329 321 315 313 310 312 318 315 308 304 304 305 306 303 304 307 309 312 313 314 314 311 309 309 310 311 314 312 308 306
299 302 303 307 309 310 308 308 293 293 292 292 298 317 325 308 299 301 303 302 296 298 304 305 303 305 302 304 305 310 312 311 313 311 309 307 307 309 310 312 310 308 306
297 297 302 302 305 307 307 306 307 305 294 292 291 296 298 302 297 297 296 295 296 299 305 303 303 303 304 306 309 309 311 313 313 309 307 307 307 308 308 308 307 306 305
296 295 300 300 299 302 302 303 304 305 304 302 295 294 293 293 294 294 294 296 299 305 307 304 306 305 305 308 308 308 311 311 309 308 307 307 308 307 307 306 305 305 304
296 295 297 298 298 299 303 302 299 297 296 297 298 295 293 291 291 292 295 303 303 305 305 305 305 306 306 307 308 307 305 306 307 307 306 306 307 307 306 305 305 295 298
297 293 294 299 299 299 299 298 297 296 296 296 296 296 297 297 297 298 300 303 303 303 305 304 304 303 304 304 305 303 306 305 306 305 305 305 306 306 305 304 303 302 303
297 296 290 296 297 295 295 294 294 293 292 292 293 292 288 299 297 297 297 297 299 299 301 301 302 302 302 303 303 304 304 305 305 304 303 304 305 304 304 303 303 303 302
296 296 295 294 295 294 294 294 294 294 294 292 292 292 289 296 295 295 295 295 296 298 298 299 301 301 302 302 303 305 304 304 304 304 303 302 303 303 303 303 302 301 300
295 295 295 294 294 292 293 292 290 290 293 293 293 292 293 293 294 293 294 296 296 296 297 297 298 299 301 302 305 304 303 303 303 303 302 302 303 302 302 301 300 299 299
296 295 294 294 293 292 291 289 288 287 289 291 291 291 290 290 292 293 293 294 295 296 296 296 296 297 299 300 302 303 303 303 303 303 303 302 302 299 301 300 300 299 298
296 295 295 294 293 293 293 292 291 290 288 289 289 289 290 290 289 290 291 292 293 294 295 295 295 297 299 299 301 301 292 288 300 294 302 301 301 302 300 300 299 298 297
296 296 296 296 296 295 294 293 293 292 291 291 290 290 290 290 290 290 290 291 291 292 294 295 297 297 297 296 294 288 287 288 295 290 300 300 300 300 299 298 297 296 296
Wind_Speed
9 10 10 12 12 14 16 9 10 14 17 18 17 17 19 19 17 15 15 15 17 15 15 15 16 13 10 10 9 7 8 7 8 4 8 7 8 7 9 7 7 6 9
15 9 9 10 12 12 12 18 29 17 17 15 16 18 18 17 16 15 14 13 16 17 17 16 17 13 14 12 11 12 10 10 10 13 10 10 8 6 6 7 7 6 10
15 14 9 7 11 11 11 23 15 19 15 15 15 16 16 17 18 17 16 16 17 17 17 18 17 17 16 12 11 9 6 6 7 9 9 8 7 6 6 5 6 9 8
15 14 13 9 6 11 13 11 13 12 14 15 17 16 16 16 16 16 17 17 16 17 16 16 18 19 16 13 11 10 10 9 9 10 9 11 9 10 9 8 8 7 9
16 15 13 13 7 8 10 11 12 14 14 16 16 15 15 15 13 17 17 17 17 17 15 16 17 18 16 16 11 12 12 10 8 8 9 8 8 9 11 8 7 6 6
16 16 13 12 10 9 7 6 7 13 13 14 17 17 16 13 15 16 16 16 15 16 16 15 15 10 11 12 14 9 10 12 8 8 9 9 10 9 9 8 8 10 8
15 15 13 13 11 9 9 6 4 9 11 13 15 17 17 17 15 18 15 15 15 16 17 13 13 10 15 14 15 15 13 10 7 7 9 8 9 12 8 10 9 9 5
16 15 12 13 11 9 9 8 7 5 8 12 13 15 16 15 16 17 17 16 13 16 13 12 14 16 15 17 15 12 9 8 6 3 4 5 8 10 10 9 8 6 6
16 14 13 11 11 9 8 6 5 5 6 9 11 12 12 13 13 15 15 17 10 12 8 14 16 16 17 19 16 15 13 6 8 10 11 10 15 10 8 9 9 9 8
15 15 12 10 11 9 6 7 6 5 5 4 7 10 15 15 13 16 17 11 10 8 10 11 17 18 19 20 19 16 13 10 10 11 10 12 11 7 3 6 9 8 7
14 15 12 10 10 10 7 8 8 8 4 5 7 8 11 15 12 15 21 11 11 11 10 10 10 23 23 17 17 14 14 15 14 11 11 10 10 9 7 5 4 3 6
13 12 10 9 8 7 4 8 7 6 5 4 5 7 7 10 8 14 18 12 16 13 12 11 11 22 21 18 14 16 19 15 11 10 11 10 10 9 9 7 5 7 8
13 9 8 6 7 4 7 10 6 7 7 5 5 5 1 1 5 12 12 7 16 13 10 12 23 21 18 12 19 21 19 10 11 12 12 11 10 10 12 11 11 12 11
7 7 5 5 2 4 3 2 4 6 7 7 5 3 3 2 4 6 9 7 7 8 15 14 18 20 12 13 15 15 9 9 10 12 11 10 10 11 10 10 10 9 9
10 8 7 4 4 5 5 2 3 2 3 6 8 7 6 5 5 6 9 11 9 11 15 10 12 12 12 11 13 10 9 8 11 10 12 12 12 11 10 10 9 9 9
9 7 6 4 3 2 3 3 7 4 7 9 9 5 8 2 15 15 10 9 19 24 10 13 12 11 14 14 13 11 10 11 11 11 12 12 12 11 10 10 9 9 9
10 10 5 4 3 3 3 2 2 4 6 12 13 5 7 7 16 17 16 21 25 17 11 12 13 14 12 13 12 11 12 12 13 12 11 11 11 11 11 11 10 9 9
10 10 7 7 8 7 6 5 4 4 4 4 8 8 6 9 11 14 17 19 10 6 12 15 14 14 14 11 11 11 11 13 12 12 12 11 11 12 12 11 10 10 9
10 8 7 6 6 6 4 3 3 3 2 3 2 6 7 13 14 16 21 10 12 7 9 9 12 13 11 12 10 9 10 10 11 10 11 12 12 11 12 11 10 9 10
8 14 8 6 5 5 5 5 4 4 4 3 2 3 4 6 8 11 4 6 6 5 5 8 9 11 11 10 12 11 11 10 11 9 11 11 11 11 11 12 11 11 10
6 7 8 7 7 7 7 6 6 6 6 5 5 4 5 8 9 8 8 9 8 8 7 6 7 13 11 10 10 11 12 10 11 10 12 11 11 11 11 12 11 10 11
6 6 6 6 6 6 7 7 6 7 7 7 8 10 10 9 9 10 10 11 9 9 10 8 3 8 11 11 12 12 12 11 10 11 11 11 11 11 12 12 12 11 11
7 7 7 7 8 8 9 9 8 8 8 8 8 9 9 9 10 10 11 10 11 11 11 12 6 5 9 9 9 11 11 12 11 10 12 12 12 12 12 12 12 11 10
7 8 8 8 8 8 8 7 7 9 9 10 10 10 11 11 11 12 11 10 10 13 11 12 10 9 9 10 8 9 8 8 9 9 13 12 12 11 12 12 11 13 11
7 7 7 7 7 7 8 9 9 8 9 10 10 11 11 12 12 12 12 11 11 13 13 12 9 10 11 10 12 14 8 8 11 9 8 12 14 15 12 11 12 11 13
7 8 7 6 7 8 8 9 9 9 9 9 10 9 10 10 10 10 10 11 10 11 11 9 11 15 14 9 13 11 10 10 9 8 11 11 11 11 11 13 16 11 13
Wind_Direction
332 328 329 328 318 238 206 218 258 200 196 174 174 181 186 185 190 197 204 195 201 204 208 202 206 217 204 201 197 178 173 171 155 147 138 145 166 167 170 174 181 137 121
321 325 323 331 325 315 202 185 237 210 195 175 174 182 184 183 182 194 198 198 200 209 209 211 207 205 206 197 190 184 171 168 157 156 160 159 172 177 214 166 151 106 106
314 318 316 329 324 323 292 201 199 217 184 184 184 183 181 183 187 194 196 203 203 209 209 208 208 197 203 190 198 171 157 139 144 142 141 146 145 165 200 169 134 108 102
309 310 306 320 313 293 304 295 193 200 193 189 194 183 184 184 188 192 199 205 205 210 210 210 211 202 202 187 184 169 159 150 145 144 148 154 163 178 200 160 140 155 155
303 301 301 308 307 293 295 288 224 211 194 191 191 192 189 187 190 194 198 203 203 207 207 208 211 198 189 185 175 169 163 162 149 142 137 157 170 195 206 153 150 160 163
296 290 295 293 299 288 267 257 294 204 202 194 193 193 193 198 180 186 196 198 197 201 202 204 203 180 143 112 97 109 159 152 156 139 157 172 183 185 201 149 162 183 166
292 288 289 289 295 300 305 298 274 255 189 202 201 199 199 203 172 182 193 196 191 204 206 197 189 167 143 136 113 108 98 83 89 141 163 175 160 192 142 182 179 202 157
289 281 279 287 285 301 304 294 314 265 228 207 206 210 208 207 166 180 187 204 199 208 208 182 155 149 162 151 142 133 119 111 107 106 182 183 166 144 161 189 169 177 111
286 276 265 262 278 283 277 299 336 280 236 209 226 211 211 216 162 179 173 205 195 211 165 160 166 159 154 148 138 142 133 104 66 84 89 83 78 85 159 163 179 187 161
280 274 266 267 279 266 285 299 325 320 274 220 213 216 214 215 157 165 182 203 185 159 152 158 164 154 153 148 150 145 139 152 150 123 120 105 116 100 19 227 182 193 149
296 280 265 251 255 281 306 308 322 313 262 228 222 223 223 217 192 176 183 179 165 156 158 160 163 147 155 150 147 150 156 153 149 136 141 135 141 151 163 186 212 187 178
292 268 260 266 261 262 248 250 246 254 278 231 226 226 227 215 172 175 189 171 162 161 166 166 151 160 154 139 142 127 130 140 149 155 150 150 155 156 136 140 113 74 62
287 249 238 243 251 304 318 303 317 328 297 266 230 232 193 142 155 192 187 224 178 162 174 166 146 152 135 117 134 139 147 160 160 161 158 158 155 138 127 130 126 111 101
342 31 29 41 174 112 232 286 272 248 267 249 227 195 143 159 151 178 178 155 149 118 103 125 151 152 135 130 138 149 169 170 163 164 154 147 131 148 158 155 146 140 130
358 22 25 46 72 104 90 17 267 281 328 252 226 225 179 182 193 186 180 172 156 142 120 124 145 150 132 141 158 172 162 161 173 156 148 152 156 165 156 160 146 151 136
357 9 11 15 27 72 95 140 93 71 26 14 339 260 213 204 147 154 161 141 135 139 130 146 152 162 149 154 164 164 154 171 160 155 159 160 158 157 157 153 156 151 141
359 358 4 17 22 48 73 80 321 170 109 47 20 40 34 163 161 158 146 148 159 147 150 164 158 155 154 160 156 162 163 165 161 159 160 158 159 152 158 155 155 147 143
4 1 1 2 4 13 18 10 348 336 337 355 19 8 97 135 163 153 137 140 168 204 165 165 160 154 149 159 162 167 165 153 158 153 154 158 153 159 154 151 150 151 142
4 356 360 11 19 8 6 24 43 41 23 1 22 55 70 101 112 128 150 161 177 166 157 160 157 150 152 151 154 141 143 155 144 147 154 155 159 157 147 154 143 137 140
5 3 2 18 27 36 38 43 50 62 63 71 90 113 131 120 126 139 129 122 104 98 133 149 152 139 138 136 140 139 146 146 137 148 151 152 154 148 148 141 142 151 145
14 16 0 35 43 43 50 47 54 57 58 56 43 44 75 113 115 110 104 95 99 97 98 112 152 126 123 134 135 143 130 145 145 148 145 156 146 143 147 144 152 137 130
16 28 26 37 44 46 57 44 38 48 50 62 64 53 53 85 95 96 94 93 92 95 95 89 58 118 133 134 142 133 143 143 143 144 145 147 143 148 145 142 137 137 139
24 34 40 48 43 44 53 52 44 34 42 54 63 70 70 75 81 86 94 97 99 95 90 86 88 111 107 119 121 132 136 143 144 142 147 142 147 145 144 138 138 142 143
28 38 46 48 44 55 58 56 54 42 42 53 61 66 68 67 70 72 73 82 89 90 77 84 79 58 79 91 96 104 119 133 128 137 140 146 135 145 140 139 141 132 133
40 48 47 50 54 55 66 71 67 56 50 56 59 59 60 63 62 60 60 58 57 63 66 69 67 69 64 87 120 110 75 72 121 118 122 134 142 141 141 133 132 130 137
56 61 53 53 57 60 62 63 65 68 66 70 69 71 71 72 74 76 74 76 76 78 77 79 89 93 95 85 91 87 85 79 100 107 131 133 138 138 137 134 137 135 139